Auburn, CA

1:08 AM PST on December 07, 2019 (GMT -0800)
Auburn Municipal

Weather History for KAUN - October, 2019

Change the Weather History Date:

Monday, October 28, 2019

  Actual Average Record
Temperature  
Mean Temperature 52 °F -  
Max Temperature 66 °F 70 °F 87 °F (1993)
Min Temperature 37 °F 47 °F 36 °F (1970)
Degree Days  
Heating Degree Days 14    
Growing Degree Days 2 (Base 50)    
Moisture  
Dew Point 13 °F    
Average Humidity 21    
Maximum Humidity 36    
Minimum Humidity 14    
Precipitation  
Precipitation 0.00 in - - ()
Sea Level Pressure  
Sea Level Pressure 30.03 in    
Wind  
Wind Speed 1 mph ()    
Max Wind Speed 9 mph    
Max Gust Speed 13 mph    
Visibility 10.0 miles    
Events      
Averages and records for this station are not official NWS values.
T = Trace of Precipitation, MM = Missing Value Source: Averaged Metar Reports

Daily Weather History Graph

Daily Weather History Graph

Search for Another Location

Airport or City:

Astronomy

Oct. 28, 2019 Rise Set
Actual Time 7:27 AM PDT 6:08 PM PDT
Civil Twilight 6:59 AM PDT 6:35 PM PDT
Nautical Twilight 6:28 AM PDT 7:07 PM PDT
Astronomical Twilight 5:57 AM PDT 7:38 PM PDT
Moon 7:55 AM PDT (10/28) 6:57 PM PDT (10/28)
Length of Visible Light 11h 36m
Length of Day
10h 41m
New Moon, 1% of the Moon is Illuminated
Oct 28
New Moon
Nov 4
First Quarter
Nov 12
Full
Nov 19
Last Quarter
Nov 26
New

Hourly Weather History & Observations

Time (PDT) Temp. Dew Point Humidity Pressure Visibility Wind Dir Wind Speed Gust Speed Precip Events Conditions
12:35 AM 41.0 °F 12.2 °F 31% 30.01 in 10.0 mi Calm Calm - N/A   Clear
12:55 AM 42.8 °F 10.4 °F 27% 30.02 in 10.0 mi Calm Calm - N/A   Clear
1:15 AM 39.2 °F 10.4 °F 31% 30.02 in 10.0 mi Calm Calm - N/A   Clear
1:35 AM 42.8 °F 10.4 °F 27% 30.02 in 10.0 mi Calm Calm - N/A   Clear
1:55 AM 44.6 °F 8.6 °F 23% 30.01 in 10.0 mi Calm Calm - N/A   Clear
2:15 AM 46.4 °F 5.0 °F 18% 30.01 in 10.0 mi Calm Calm - N/A   Clear
2:35 AM 46.4 °F 5.0 °F 18% 30.01 in 10.0 mi Calm Calm - N/A   Clear
2:55 AM 48.2 °F 5.0 °F 17% 30.01 in 10.0 mi East 5.8 mph - N/A   Clear
3:15 AM 48.2 °F 3.2 °F 16% 30.00 in 10.0 mi Calm Calm - N/A   Clear
3:35 AM 48.2 °F 3.2 °F 16% 30.00 in 10.0 mi Calm Calm - N/A   Clear
3:55 AM 50.0 °F 5.0 °F 16% 29.99 in 10.0 mi East 4.6 mph - N/A   Clear
4:15 AM 51.8 °F 5.0 °F 15% 29.99 in 10.0 mi East 3.5 mph - N/A   Clear
4:35 AM 51.8 °F 6.8 °F 16% 30.00 in 10.0 mi East 5.8 mph - N/A   Clear
4:55 AM 48.2 °F 6.8 °F 19% 30.00 in 10.0 mi Calm Calm - N/A   Clear
5:15 AM 44.6 °F 8.6 °F 23% 30.01 in 10.0 mi Calm Calm - N/A   Clear
5:35 AM 41.0 °F 10.4 °F 29% 30.01 in 10.0 mi Calm Calm - N/A   Clear
5:55 AM 37.4 °F 12.2 °F 36% 30.02 in 10.0 mi Calm Calm - N/A   Clear
6:15 AM 44.6 °F 8.6 °F 23% 30.02 in 10.0 mi Calm Calm - N/A   Clear
6:35 AM 37.4 °F 10.4 °F 33% 30.03 in 10.0 mi Calm Calm - N/A   Clear
6:55 AM 41.0 °F 10.4 °F 29% 30.03 in 10.0 mi Calm Calm - N/A   Clear
7:15 AM 46.4 °F 10.4 °F 23% 30.04 in 10.0 mi Calm Calm - N/A   Clear
7:35 AM 44.6 °F 8.6 °F 23% 30.05 in 10.0 mi Calm Calm - N/A   Clear
7:55 AM 46.4 °F 10.4 °F 23% 30.05 in 10.0 mi Calm Calm - N/A   Clear
8:15 AM 48.2 °F 10.4 °F 22% 30.06 in 10.0 mi East 8.1 mph - N/A   Clear
8:35 AM 50.0 °F 10.4 °F 20% 30.06 in 10.0 mi East 8.1 mph - N/A   Clear
8:55 AM 53.6 °F 8.6 °F 16% 30.07 in 10.0 mi ESE 6.9 mph - N/A   Clear
9:15 AM 55.4 °F 8.6 °F 15% 30.08 in 10.0 mi East 4.6 mph - N/A   Clear
9:35 AM 55.4 °F 10.4 °F 17% 30.09 in 10.0 mi Calm Calm - N/A   Clear
9:55 AM 59.0 °F 8.6 °F 14% 30.09 in 10.0 mi Calm Calm - N/A   Clear
10:15 AM 59.0 °F 15.8 °F 19% 30.09 in 10.0 mi Calm Calm - N/A   Clear
10:35 AM 60.8 °F 19.4 °F 20% 30.08 in 10.0 mi SSE 6.9 mph - N/A   Clear
10:55 AM 60.8 °F 17.6 °F 19% 30.08 in 10.0 mi SE 5.8 mph - N/A   Clear
11:15 AM 62.6 °F 15.8 °F 16% 30.08 in 10.0 mi South 6.9 mph - N/A   Clear
11:35 AM 62.6 °F 15.8 °F 16% 30.08 in 10.0 mi Calm Calm 12.7 mph N/A   Clear
11:55 AM 62.6 °F 14.0 °F 15% 30.08 in 10.0 mi SSE 8.1 mph - N/A   Clear
12:15 PM 64.4 °F 15.8 °F 15% 30.07 in 10.0 mi Calm Calm - N/A   Clear
12:35 PM 64.4 °F 17.6 °F 16% 30.07 in 10.0 mi Variable 3.5 mph 12.7 mph N/A   Clear
12:55 PM 64.4 °F 17.6 °F 16% 30.07 in 10.0 mi Calm Calm - N/A   Clear
1:15 PM 64.4 °F 17.6 °F 16% 30.06 in 10.0 mi WSW 3.5 mph - N/A   Clear
1:35 PM 64.4 °F 19.4 °F 18% 30.05 in 10.0 mi Calm Calm - N/A   Clear
1:55 PM 64.4 °F 17.6 °F 16% 30.04 in 10.0 mi Calm Calm - N/A   Clear
2:15 PM 64.4 °F 15.8 °F 15% 30.03 in 10.0 mi Calm Calm - N/A   Clear
2:35 PM 66.2 °F 15.8 °F 14% 30.02 in 10.0 mi SSW 6.9 mph - N/A   Clear
2:55 PM 66.2 °F 17.6 °F 15% 30.02 in 10.0 mi Calm Calm - N/A   Clear
3:35 PM 66.2 °F 17.6 °F 15% 30.01 in 10.0 mi Calm Calm 11.5 mph N/A   Clear
4:15 PM 64.4 °F 15.8 °F 15% 30.01 in 10.0 mi SSW 5.8 mph - N/A   Clear
4:35 PM 64.4 °F 14.0 °F 14% 30.01 in 10.0 mi Calm Calm - N/A   Clear
4:55 PM 64.4 °F 14.0 °F 14% 30.00 in 10.0 mi Calm Calm - N/A   Clear
5:15 PM 62.6 °F 12.2 °F 14% 30.01 in 10.0 mi Calm Calm - N/A   Clear
5:35 PM 62.6 °F 14.0 °F 15% 30.00 in 10.0 mi Calm Calm - N/A   Clear
5:55 PM 60.8 °F 14.0 °F 16% 30.00 in 10.0 mi Calm Calm - N/A   Clear
6:15 PM 55.4 °F 15.8 °F 21% 30.00 in 10.0 mi Calm Calm - N/A   Clear
6:35 PM 48.2 °F 17.6 °F 30% 30.00 in 10.0 mi Calm Calm - N/A   Clear
6:55 PM 48.2 °F 17.6 °F 30% 30.00 in 10.0 mi Calm Calm - N/A   Clear
7:15 PM 46.4 °F 17.6 °F 32% 29.99 in 10.0 mi Calm Calm - N/A   Clear
7:35 PM 50.0 °F 15.8 °F 26% 29.99 in 10.0 mi Calm Calm - N/A   Clear
7:55 PM 51.8 °F 15.8 °F 24% 29.99 in 10.0 mi Calm Calm - N/A   Clear
8:15 PM 51.8 °F 15.8 °F 24% 30.00 in 10.0 mi Calm Calm - N/A   Clear
8:35 PM 50.0 °F 15.8 °F 26% 30.00 in 10.0 mi Calm Calm - N/A   Clear
8:55 PM 53.6 °F 15.8 °F 22% 30.01 in 10.0 mi Calm Calm - N/A   Clear
9:15 PM 51.8 °F 17.6 °F 26% 30.01 in 10.0 mi Calm Calm - N/A   Clear
9:35 PM 51.8 °F 17.6 °F 26% 30.01 in 10.0 mi Calm Calm - N/A   Clear
9:55 PM 51.8 °F 17.6 °F 26% 30.01 in 10.0 mi East 8.1 mph - N/A   Clear
10:15 PM 51.8 °F 17.6 °F 26% 30.01 in 10.0 mi East 6.9 mph - N/A   Clear
10:35 PM 50.0 °F 19.4 °F 30% 30.01 in 10.0 mi East 5.8 mph - N/A   Clear
10:55 PM 50.0 °F 19.4 °F 30% 30.00 in 10.0 mi East 9.2 mph - N/A   Clear
11:15 PM 51.8 °F 17.6 °F 26% 30.01 in 10.0 mi East 6.9 mph - N/A   Clear
11:35 PM 51.8 °F 17.6 °F 26% 30.01 in 10.0 mi East 5.8 mph - N/A   Clear
11:55 PM 50.0 °F 17.6 °F 28% 30.00 in 10.0 mi Calm Calm - N/A   Clear